Theta_e
311 312 316 317 317 316 316 317 317 317 319 319 318 318 318 317 315 315 312 312 311 311
307 308 307 308 309 308 307 307 308 309 310 312 312 312 311 311 310 310 310 310 309 309
299 300 300 301 300 300 301 301 300 300 300 301 301 301 302 302 302 302 303 305 306 307
294 294 295 294 294 295 295 295 295 296 296 296 296 296 296 296 296 296 298 299 300 301
292 292 291 291 291 292 292 292 292 292 292 292 293 293 293 292 292 292 292 293 295 296
290 290 290 289 290 290 290 290 290 290 289 289 290 290 289 289 289 290 291 292 292 292
288 289 289 289 288 288 288 288 288 288 287 286 287 287 286 286 287 287 288 289 289 290
288 288 287 287 287 286 286 286 285 285 285 284 285 285 286 285 285 284 284 285 286 287
285 284 284 284 284 284 284 284 284 284 284 283 284 289 290 288 284 283 283 283 283 284
284 284 283 284 284 283 283 283 283 283 283 282 282 288 289 289 284 283 282 282 283 285
283 282 282 282 282 282 282 281 281 281 281 281 282 287 288 288 283 281 281 281 284 284
281 279 280 278 280 281 278 278 277 280 277 275 278 285 287 286 281 282 281 282 282 284
280 276 275 278 277 278 275 279 279 278 276 275 273 283 287 286 281 279 282 283 284 284
278 275 275 275 275 272 271 274 269 273 273 272 274 276 286 286 284 283 282 283 283 283
Wind_Speed
7 5 6 5 5 4 4 4 5 5 5 4 5 4 3 2 3 4 4 6 5 5
8 9 7 10 9 5 5 5 6 6 6 6 6 5 4 3 3 4 3 4 4 4
9 10 10 10 8 8 6 7 7 7 7 7 7 7 6 5 5 5 4 3 5 5
9 9 9 8 7 6 7 7 7 6 6 7 7 7 6 6 6 6 6 5 5 6
8 8 9 8 6 6 7 6 6 6 6 6 6 6 6 6 5 6 5 6 7 8
7 7 7 7 6 6 6 6 7 6 7 6 6 5 5 5 5 5 5 6 8 10
6 6 6 6 6 6 6 6 6 6 6 6 5 5 5 6 5 5 5 5 8 9
6 5 6 6 6 6 6 6 5 6 6 6 5 4 6 5 5 5 6 6 6 6
5 6 6 6 5 5 5 5 5 6 6 7 4 11 10 7 5 6 6 7 7 6
5 6 5 5 5 5 6 5 6 6 6 6 5 10 11 10 4 5 6 6 7 10
5 5 4 5 5 4 3 5 4 4 4 5 5 12 12 12 5 5 5 6 6 10
4 4 4 4 4 3 2 1 2 3 4 3 6 12 12 9 3 5 5 5 6 9
3 3 2 1 3 1 1 3 3 3 3 6 6 11 12 12 3 6 8 9 9 10
3 2 2 1 1 2 3 2 3 4 3 4 3 4 13 14 7 7 7 7 8 6
Wind_Direction
76 72 77 96 97 73 66 53 36 39 29 17 13 357 327 288 277 268 245 243 239 240
65 71 74 69 68 64 53 51 47 46 40 34 41 26 23 25 8 2 334 295 280 265
68 68 69 67 60 59 52 48 48 45 44 41 35 23 18 10 358 359 347 333 323 310
63 66 69 70 59 56 55 46 48 48 50 46 40 26 31 20 7 356 340 337 323 320
72 70 74 70 63 59 62 49 53 52 56 44 38 32 34 16 0 348 343 343 338 322
71 74 75 72 60 56 61 52 45 45 44 35 30 30 28 15 360 347 349 340 326 318
73 72 71 66 59 54 49 51 44 42 41 32 20 24 17 7 348 337 330 325 321 317
81 71 69 65 60 57 49 46 43 36 28 23 16 355 349 338 318 310 305 286 275 271
94 85 73 67 66 65 56 40 35 28 20 7 354 339 334 331 318 311 308 311 308 297
99 88 72 70 60 46 41 23 23 12 356 333 314 325 331 329 309 303 302 303 315 324
98 93 77 70 59 40 44 21 352 319 300 307 313 330 334 334 319 302 291 288 306 318
116 104 81 63 39 14 16 312 271 279 307 306 301 326 336 341 296 307 300 293 306 322
111 118 97 60 5 326 341 285 296 300 258 269 283 328 347 349 318 328 329 329 327 321
95 90 50 28 333 294 305 283 270 259 269 282 257 307 338 342 336 323 313 314 315 314